Timeline UpdatesTrip UpdatesNews PostsPvt Posts♥♥Travel TipsAdmin PostsConv PostsFollowed PostsChat RequestsBlog PostsPNR Posts

Disclaimer
Search
 
 
Fri Dec 19, 2014 23:01:14 ISTHomeTrainsΣChainsAtlasPNRForumGalleryNewsFAQTripsMembersLoginFeedback
PNR Super Search

Ticket PNR Status Inquiry - PNR: 810-xxxxxxx (E-Ticket)

OLD STATUS

Status Last Updated on: Jun 22 2012 (8:36PM) IST

Date of Journey: Sat Jun 23, 2012   Class: AC 2-tier - 2A
Passenger 1: A1,3/Coach Position:4 (Booking Status: W/L 3,RLGN)
Chart PREPARED

Mumbai LTT - Amritsar (Pathankot) Express/11057

Travel Time: 4h 25m    10 halts    Distance: 251 km    Avg Speed: 56 km/hr
Type: Mail/Express
Zone: CR/Central
Departs @ 17:45 (Avg 17m late)
Platform# 3
SMTWTFS
Bina Junction/BINA 
Arrives @ 22:10 (Avg 52m late)
Platform# 2
SMTWTFS
Gwalior Junction/GWL 

10 halts. 30 intermediate Stations between Bina Junction and Gwalior Junction

Show ALL intermediate Stations  Show Old Time-Table

#TrkCodeStation NameX/OArrivesAvgDepartsAvgHaltPFDay#KmSpeedElevZoneAddress
1/==/LTTMumbai Lokmanya Tilak Terminus (5)  -23:45+231-963.2437mCRMumbai - 400089, Maharashtra
2/==/TNAThane (10)  00:07 00:08+300:10+43 2m72-946.76110mCRThane (West) 400602, Maharashtra
3/==/KYNKalyan Junction (8)  00:30+1400:35 00:33+185 3m42-926.56210mCRKalyan 421301, Maharashtra
4/==/KSRAKasara (4)XO  01:43 01:38+2001:45 01:40+262m12-859.125290mCRDist. Thane 421602, Maharashtra
5/==/IGPIgatpuri (4)X02:15+1402:20+205m22-844.763589mCRIgatpuri 422403, Maharashtra
6/==/DVLDevlali (3)X  03:08 03:03+1803:10 03:05+192m12-799.869561mCRDist. Nashik 422401, Maharashtra
7/==/NKNasik Road (3)XO  03:15 03:10+2103:20 03:15+205m12-794.193563mCRNashik 422101, Maharashtra
8/==/MMRManmad Junction (6)X  04:05 04:02+2404:10 04:05+245 3m22-721.376580mCRManmad 423104, Maharashtra
9/==/CSNChalisgaon Junction (3)  05:03 04:58+2205:05 05:00+252m--2-653.896352mCRChalisgaon 424101, Maharashtra
10/==/PCPachora Junction (4)  05:33 05:28+3005:35 05:30+302m--2-608.987264mCRPachora 424201, Maharashtra
11/==/JLJalgaon Junction (4)X  06:08 06:03+3206:10 06:05+332m32-561.258213mCRJalgaon 425001, Maharashtra
12/==/BSLBhusaval Junction (8)X  06:40 06:30+3406:50 06:45+3310 15m62-537.151208mCRBhusaval 425201, Maharashtra
13/==/SAVSavda (2)XO  07:03+3407:05+332m--2-521.7105220mCRSavda, Maharashtra
14/==/NBNimbhora (2)XO  07:13 07:10+3707:15 07:12+372m--2-513.076229mCRJalgaon, Maharashtra
15/==/RVRaver (2)X  07:23 07:20+3907:25 07:22+392m--2-502.876242mCRJalgaon, Maharashtra
16/==/BAUBurhanpur (2)  07:43 07:38+4007:45 07:40+402m22-482.687269mCRBurhanpur, Madhya Pradesh
17/==/NPNRNepanagar (2)  08:03 07:58+4308:05 08:00+432m--2-456.430289mCRState Highway 27, Madhya Pradesh
18/==/KNWKhandwa Junction (5)X  09:35 09:25+309:40 09:30+65m22-413.741310mCRKhandwa, Madhya Pradesh
19/==/TLVTalvadiya (2)XO  09:53+209:55+72m--2-398.099308mWCRKhandwa, Madhya Pradesh
20/==/CAERChhanera (2)XO  10:13+1210:15+182m--2-368.388283mWCRChhanera, Madhya Pradesh
21/==/KKNKhirkiya (2)X  10:36+2010:38+212m22-337.673281mWCRSH 15, Madhya Pradesh
22/==/HDHarda (3)  11:04+1911:06+192m--2-306.161289mWCRHarda, Madhya Pradesh
23/==/TBNTimarni (2)  11:20+1911:22+272m--2-292.040308mWCRTimarni, Madhya Pradesh
24/==/BPFBanapura (2)  12:04+1112:06+142m--2-263.851314mWCRBanapura, Madhya Pradesh
25/==/ETItarsi Junction (7)X  12:50 12:45+1212:55 12:50+195m12-230.368329mWCRItarsi 461111, Madhya Pradesh
26/==/HBDHoshangabad (2)X  13:13 13:06+2613:15 13:08+262m--2-212.242308mWCRHoshangabad, Madhya Pradesh
27/==/BNIBudni (2)  13:25 13:18+2713:27 13:20+282m--2-205.349311mWCRSehore 466445 Madhya pradesh, Madhya Pradesh
28/==/ODGObaidulla GanjO  14:03 13:58+3514:05 14:00+362m22-174.558448mWCRObaidullaganj Raisen Dist., Madhya Pradesh
29/==/MDDPMandi Dip (1)  14:19 14:14+3514:21 14:16+352m12-160.957455mWCRMandideep, Madhya Pradesh
30/==/HBJBhopal HabibGanj (5)X  14:38 14:33+3814:40 14:35+402m12-144.815496mWCRHabibGanj, Madhya Pradesh
31/==/BPLBhopal Junction (6)  15:05 15:00+2915:10 15:05+365m22-138.674497mWCRBhopal, Madhya Pradesh
32/==/SCISanchi (2)XO  15:41+3515:43+372m22-94.543428mWCRRaisen, Madhya Pradesh
33/==/BHSVidisha (3)  15:56+3215:58+322m12-85.070433mWCRVidisha, Madhya Pradesh
34/==/GLGGulabhGanj (3)  16:16+3516:18+352m12-64.092433mWCRVidisha, Madhya Pradesh
35/==/BAQGanj Basoda (4)X  16:30+3416:32+342m12-45.771415mWCRVidisha, Madhya Pradesh
36/==/MABAMandi Bamora (3)XO  16:56+3416:58+342m12-17.225413mWCRState Highway 14, Madhya Pradesh
37/==/BINABina Junction (5)»X  17:40+1517:45+175m320.058414mWCRJn Pt - KATNI/GUNA/ BPL/JHS, Madhya Pradesh
38/==/DUADhaura (3)X  18:21+3018:23+302m--234.658407mNCRDhaura Tanda, Madhya Pradesh
39/==/JLNJakhalaun (3)  18:36 18:35+2818:37+281 2m1246.272394mNCRLalitpur(05176-272220), Uttar Pradesh
40/==/LARLalitpur (3)  18:51+2918:53+292m3262.986373mNCRLalitpur, Uttar Pradesh
41/==/TBTTalbahat (4)X  19:21+3619:23+362m32102.859314mNCRKhaniyadhana Station Rd, Madhya Pradesh
42/==/BZYBasai (3)  19:36+3819:38+382m22115.660287mNCR07522289600(Gate ManMob. - 9452701575), Madhya Pradesh
43/==/BABBabina (3)X  19:50+4019:52+402m12127.740285mNCRBabina, Uttar Pradesh
44/==/JHSJhansi Junction (7)X  20:30+3520:38+408m52153.268259mNCRJhansi, Uttar Pradesh
45/==/DAADatia (2)X  21:00+4421:02+442m--2178.363264mNCRDatia, Madhya Pradesh
46/==/SORSonagir (2)X  21:13+4421:15+442m--2189.871211mNCRDatia, Madhya Pradesh
47/==/DBADabra (3)X  21:31+4621:33+472m--2208.669207mNCRDabra(District-Gwalior), Madhya Pradesh
48/==/GWLGwalior Junction (4)•X  22:10+5222:18+508m22251.093214mNCRGwalior, Madhya Pradesh
49/==/MRAMorena (3)X  22:43+1:0122:45+1:012m22289.570176mNCRMorena, Madhya Pradesh
50/==/DHODholpur Junction (3)X  23:08+1:0323:10+1:052m12316.454177mNCRDholpur, Rajasthan
51/==/AGCAgra Cantt. (6)X  00:08+1:1100:18 00:16+1:1410 8m23369.027174mNCRAgra, Uttar Pradesh
52/==/RKMRaja Ki Mandi (4)  00:25+1:2000:27+1:202m13373.069170mNCRAgra, Uttar Pradesh
53/==/MTJMathura Junction (10)  01:10+1:2201:20 01:15+1:2210 5m33422.675179mNCRMathura, Uttar Pradesh
54/==/KSVKosi Kalan (3)  01:48+1:2801:50+1:292m13464.144189mNCRKosi Kalan, Uttar Pradesh
55/==/PWLPalwal (8)  02:48+1:0202:50+1:022m--3506.671200mNRPalwal, Haryana
56/==/BVHBallabgarh (5)  03:08+1:0903:10+1:092m33527.744203mNRFaridabad, Haryana
57/==/FDBFaridabad (4)  03:21+1:1003:23+1:102m23535.852206mNRold Faridabad, Haryana
58/==/NZMDelhi Hazrat Nizamuddin (7)X  03:47+1:1603:49+1:162m33556.617209mNRNew Delhi 110013, Delhi NCT
59/==/NDLSNew Delhi (16)  04:10 04:15+1:1304:30+1:1520 15m23564.015215mNRNew Delhi 110002, Delhi NCT
60/==/SZMDelhi Sabzi Mandi (2)  04:46+1:2504:48+1:252m--3568.149220mNRGulabi Bagh, Delhi NCT
61/==/BHDBadli (2)XO  05:01+1:2705:03+1:272m--3578.751217mNRRohini, Delhi NCT
62/==/NURNarela (2)X  05:17 05:18+1:2705:19 05:20+1:292m--3591.437222mNRNarela, Delhi NCT
63/==/SNPSonipat (3)X  05:46 05:48+1:2005:48 05:50+1:252m--3608.560225mNRSonipat, Haryana
64/==/GNUGanaur  06:00 06:06+1:2306:02 06:08+1:242m--3624.357222mNRGanaur, Haryana
65/==/SMKSamalkha (3)  06:21+1:1906:23+1:282m--3636.654229mNRSamalkha, Haryana
66/==/PNPPanipat Junction (5)  06:38 06:42+1:1906:40 06:44+1:202m33653.664235mNRPanipat, Haryana
67/==/GRAGharaunda (2)  07:00+1:2307:02+1:252m--3670.566244mNRGharaunda, Haryana
68/==/KUNKarnal (3)  07:18+1:2407:20+1:242m23688.052253mNRKarnal, Haryana
69/==/TRRTaraori (2)  07:34+1:2007:36 07:35+1:212 1m--3700.126255mNRTaraori, Haryana
70/==/NLKRNilokheri (2)XO  07:44+1:2007:46 07:45+1:242 1m--3704.134254mNRNilokheri, Haryana
71/==/KKDEKurukshetra Junction (3)  08:20 08:15+1:0308:22 08:17+1:042m13721.178260mNRKurukshetra, Haryana
72/==/SHDMShahbad Markanda (2)X  08:43 08:34+1:0308:45 08:36+1:032m23743.327267mNRShahabad Markanda, Haryana
73/==/UMBAmbala Cantt. Junction (7)X09:20+5909:40+1:0620m63763.238278mNRAmbala 133001, Haryana
74/==/UBCAmbala City (3)X  09:52+1:1009:54+1:112m33770.882273mNRNH-1, Haryana
75/==/RPJRajpura Junction (3)  10:11 10:09+1:1610:13 10:11+1:162m13791.355272mNRNH-1., Punjab
76|--|PTAPatiala (4)X  10:35 10:38+1:2010:40+1:235 2m13816.152256mNRPatiala, Punjab
77|--|NBANabha (1)  11:08 11:10+1:1511:10 11:12+1:162m13841.949250mNRNabha, Punjab
78|--|DUIDhuri Junction (4)  11:45+1:1311:50+1:145m--3868.972248mNRDhuri, Punjab
79|--|METMalerkotla (2)X  12:07 12:04+1:2012:09 12:06+1:212m13885.728248mNRMalerkotla., Punjab
80|--|AHHAhmadgarh (1)  12:48+1:0612:50+1:072m13905.544256mNRAhmedgarh, Punjab
81|--|LDHLudhiana Junction (7)X  13:25+1:0813:35+1:1410m33931.034246mNRLudhiana 141001, Punjab
82/==/PHRPhillaur Junction (3)X  13:58+1:0514:00+1:052m23944.064246mNRPhillaur, Punjab
83/==/GRYGoraya (2)X  14:12+1:0514:14+1:052m23956.854240mNRGoraya, Punjab
84/==/PGWPhagwara Junction (3)X  14:25+1:0314:27+1:042m23966.670245mNRPhagwara, Punjab
85/==/JRCJalandhar Cantt. Junction (3)X  14:41+1:0814:43+1:082m13982.924239mNRNear Rama Mandi, Punjab
86/==/JUCJalandhar City Junction (5)  14:55+5915:00+1:025m13987.756239mNRJalandhar 144001, Punjab
87/==/BEASBeas Junction (2)X  15:39+1:0215:41+1:022m131023.880238mNRBeas, Punjab
88/==/JNLJandiala (2)X  15:59+1:0016:01+1:002m131047.740238mNRJandiala, Punjab
89/==/ASRAmritsar Junction (5)  16:30+50-431066.9-233mNRAmritsar 143002, Punjab
Scroll to Top
Scroll to Bottom


Go to Mobile site